Location: Bishopstone
(51.0167°N, 1.9000°W)
Time: 09:13:39
(UTC+00:00)

Cosmos 2227 Rocket - Pass Details

Date: 16 September 2019
Orbit: 837 x 847 km, 71.0° (Epoch: 18 October)

Event Time Altitude Azimuth Distance (km) Brightness Sun altitude
Exits shadow 21:20:30 35° 212° (SSW) 1,339 3.1 -26.4°
Maximum altitude 21:23:02 86° 300° (WNW) 853 2.1 -26.7°
Drops below altitude 10° 21:28:44 10° 29° (NNE) 2,477 4.8 -27.3°
Sets 21:31:12 0° 30° (NNE) 3,417 5.6 -27.6°
